sat.trackr.live / text

‹ back to catalog

STARLINK-3248

NORAD 49748 · 2021-115AA

PAYLOAD ACTIVE UNKNOWN

§ Identity

Operator
Country
US
Launch date
2021-12-02
Launch site
AFETR
Launch vehicle
Mass (kg)
RCS (m²)

Purposes: comms

External: N2YO · Heavens-Above · Gunter

§ Orbital elements

Epoch: 2026-05-25T01:17:08.729664Z

Period
95.44 min
Inclination
53.2140°
Eccentricity
0.0001006
Mean motion
15.08835660 rev/d
Perigee alt
539.1 km
Apogee alt
540.5 km
Semi-major
6,917.9 km
B*
7.6407e-5
RAAN
165.8871°
Arg perigee
69.8394°
Mean anomaly
290.2706°
Rev number
24,707

§ Raw data

STARLINK-32481 49748U 21115AA  26145.05357326  .00000928  00000+0  76407-4 0  99972 49748  53.2140 165.8871 0001006  69.8394 290.2706 15.08835660247079

JSON: /api/v1/satellites/49748 · /tle

For live sub-satellite position, see the globe view (requires WebGL).

§ Visibility from observer

Set your observer location to see the next 7 days of passes ≥ 10°. The values pass through the URL so the page stays shareable.

No JS? Fill the form by hand. The geolocation button needs JavaScript.